Time,TemperatureF,DewpointF,PressureIn,WindDirection,WindDirectionDegrees,WindSpeedMPH,WindSpeedGustMPH,Humidity,HourlyPrecipIn,Conditions,Clouds,dailyrainin,SoftwareType,DateUTC
2013-03-11 00:00:00,56.5,42.4,29.70,SSE,167,2.0,8.0,59,0.00,,,0.00,VWS V14.01,2013-03-11 04:00:00,
2013-03-11 00:06:00,56.4,42.3,29.70,South,174,2.0,2.0,59,0.00,,,0.00,VWS V14.01,2013-03-11 04:06:00,
2013-03-11 00:11:00,56.3,42.6,29.70,South,173,2.0,9.0,60,0.00,,,0.00,VWS V14.01,2013-03-11 04:11:00,
2013-03-11 00:16:00,56.3,42.6,29.70,SSE,162,2.0,9.0,60,0.00,,,0.00,VWS V14.01,2013-03-11 04:16:00,
2013-03-11 00:21:00,56.2,43.0,29.70,South,172,2.0,9.0,61,0.00,,,0.00,VWS V14.01,2013-03-11 04:21:00,
2013-03-11 00:26:00,56.1,42.8,29.70,SSW,194,3.0,9.0,61,0.00,,,0.00,VWS V14.01,2013-03-11 04:26:00,
2013-03-11 00:30:00,56.1,42.8,29.69,SE,139,4.0,7.0,61,0.00,,,0.00,VWS V14.01,2013-03-11 04:30:00,
2013-03-11 00:31:00,56.1,42.8,29.69,SSW,199,2.0,6.0,61,0.00,,,0.00,VWS V14.01,2013-03-11 04:31:00,
2013-03-11 00:36:00,56.0,43.2,29.69,South,179,2.0,2.0,62,0.00,,,0.00,VWS V14.01,2013-03-11 04:36:00,
2013-03-11 00:41:00,55.8,43.0,29.69,ESE,123,2.0,5.0,62,0.00,,,0.00,VWS V14.01,2013-03-11 04:41:00,
2013-03-11 00:46:00,55.7,42.9,29.69,SSE,158,2.0,5.0,62,0.00,,,0.00,VWS V14.01,2013-03-11 04:46:00,
2013-03-11 00:51:00,55.6,43.2,29.70,SSE,150,1.0,5.0,63,0.00,,,0.00,VWS V14.01,2013-03-11 04:51:00,
2013-03-11 00:56:00,55.6,43.2,29.70,SW,221,1.0,5.0,63,0.00,,,0.00,VWS V14.01,2013-03-11 04:56:00,
2013-03-11 01:00:00,55.6,43.2,29.70,South,184,1.0,5.0,63,0.00,,,0.00,VWS V14.01,2013-03-11 05:00:00,
2013-03-11 01:01:00,55.5,43.5,29.70,West,275,2.0,2.0,64,0.00,,,0.00,VWS V14.01,2013-03-11 05:01:00,
2013-03-11 01:06:00,55.8,43.8,29.69,SSW,193,4.0,4.0,64,0.00,,,0.00,VWS V14.01,2013-03-11 05:06:00,
2013-03-11 01:11:00,56.1,44.1,29.69,SE,126,3.0,8.0,64,0.00,,,0.00,VWS V14.01,2013-03-11 05:11:00,
2013-03-11 01:17:00,56.4,44.4,29.69,SSE,152,4.0,4.0,64,0.00,,,0.00,VWS V14.01,2013-03-11 05:17:00,
2013-03-11 01:22:00,56.4,45.6,29.68,SSW,198,5.0,11.0,67,0.00,,,0.00,VWS V14.01,2013-03-11 05:22:00,
2013-03-11 01:27:00,56.4,46.0,29.68,South,187,5.0,11.0,68,0.00,,,0.00,VWS V14.01,2013-03-11 05:27:00,
2013-03-11 01:30:00,56.4,46.0,29.68,SW,217,7.0,11.0,68,0.00,,,0.00,VWS V14.01,2013-03-11 05:30:00,
2013-03-11 01:32:00,56.2,46.2,29.68,SW,222,2.0,7.0,69,0.00,,,0.00,VWS V14.01,2013-03-11 05:32:00,
2013-03-11 01:37:00,55.8,45.8,29.68,South,177,8.0,8.0,69,0.00,,,0.00,VWS V14.01,2013-03-11 05:37:00,
2013-03-11 01:42:00,55.5,46.3,29.68,SSW,208,2.0,10.0,71,0.00,,,0.00,VWS V14.01,2013-03-11 05:42:00,
2013-03-11 01:47:00,55.2,46.3,29.68,WSW,238,2.0,6.0,72,0.00,,,0.00,VWS V14.01,2013-03-11 05:47:00,
2013-03-11 01:52:00,54.9,46.8,29.69,SW,229,2.0,8.0,74,0.00,,,0.00,VWS V14.01,2013-03-11 05:52:00,
2013-03-11 01:57:00,54.5,47.1,29.69,WSW,256,2.0,2.0,76,0.00,,,0.00,VWS V14.01,2013-03-11 05:57:00,
2013-03-11 02:00:00,54.6,47.2,29.69,SW,221,1.0,8.0,76,0.00,,,0.00,VWS V14.01,2013-03-11 06:00:00,
2013-03-11 02:02:00,54.1,47.1,29.69,SW,226,2.0,4.0,77,0.00,,,0.00,VWS V14.01,2013-03-11 06:02:00,
2013-03-11 02:07:00,53.7,47.3,29.69,WSW,244,4.0,5.0,79,0.00,,,0.00,VWS V14.01,2013-03-11 06:07:00,
2013-03-11 02:12:00,53.2,47.5,29.69,WSW,250,3.0,6.0,81,0.00,,,0.00,VWS V14.01,2013-03-11 06:12:00,
2013-03-11 02:17:00,52.8,47.8,29.69,WNW,297,1.0,10.0,83,0.00,,,0.00,VWS V14.01,2013-03-11 06:17:00,
2013-03-11 02:22:00,52.5,47.8,29.69,WSW,238,1.0,10.0,84,0.00,,,0.00,VWS V14.01,2013-03-11 06:22:00,
2013-03-11 02:27:00,52.1,47.7,29.68,WSW,247,2.0,3.0,85,0.00,,,0.00,VWS V14.01,2013-03-11 06:27:00,
2013-03-11 02:30:00,52.1,47.7,29.68,SSW,193,2.0,3.0,85,0.00,,,0.00,VWS V14.01,2013-03-11 06:30:00,
2013-03-11 02:32:00,51.8,48.1,29.68,WSW,239,1.0,5.0,87,0.00,,,0.00,VWS V14.01,2013-03-11 06:32:00,
2013-03-11 02:37:00,51.5,48.1,29.68,SW,225,1.0,3.0,88,0.00,,,0.00,VWS V14.01,2013-03-11 06:37:00,
2013-03-11 02:42:00,51.2,48.4,29.68,SSW,211,1.0,5.0,90,0.00,,,0.00,VWS V14.01,2013-03-11 06:42:00,
2013-03-11 02:47:00,51.1,48.6,29.68,WSW,245,0.0,5.0,91,0.00,,,0.00,VWS V14.01,2013-03-11 06:47:00,
2013-03-11 02:52:00,51.0,48.5,29.68,South,179,3.0,5.0,91,0.00,,,0.00,VWS V14.01,2013-03-11 06:52:00,
2013-03-11 02:57:00,50.8,48.6,29.68,SW,221,1.0,2.0,92,0.00,,,0.00,VWS V14.01,2013-03-11 06:57:00,
2013-03-11 03:00:00,50.9,48.7,29.68,WSW,249,2.0,4.0,92,0.00,,,0.00,VWS V14.01,2013-03-11 07:00:00,
2013-03-11 03:02:00,50.8,48.8,29.68,SW,219,2.0,4.0,93,0.00,,,0.00,VWS V14.01,2013-03-11 07:02:00,
2013-03-11 03:07:00,50.8,48.8,29.68,SW,229,2.0,4.0,93,0.00,,,0.00,VWS V14.01,2013-03-11 07:07:00,
2013-03-11 03:12:00,50.8,48.8,29.68,SW,234,3.0,4.0,93,0.00,,,0.00,VWS V14.01,2013-03-11 07:12:00,
2013-03-11 03:17:00,50.8,48.8,29.68,SSW,201,1.0,5.0,93,0.00,,,0.00,VWS V14.01,2013-03-11 07:17:00,
2013-03-11 03:22:00,50.9,49.2,29.68,SSW,210,4.0,5.0,94,0.00,,,0.00,VWS V14.01,2013-03-11 07:22:00,
2013-03-11 03:27:00,50.9,49.2,29.67,SSE,151,2.0,3.0,94,0.00,,,0.00,VWS V14.01,2013-03-11 07:27:00,
2013-03-11 03:30:00,50.9,49.2,29.67,SSW,210,3.0,5.0,94,0.00,,,0.00,VWS V14.01,2013-03-11 07:30:00,
2013-03-11 03:32:00,50.9,49.2,29.67,WSW,240,0.0,3.0,94,0.00,,,0.00,VWS V14.01,2013-03-11 07:32:00,
2013-03-11 03:37:00,50.9,49.2,29.67,South,174,2.0,3.0,94,0.00,,,0.00,VWS V14.01,2013-03-11 07:37:00,
2013-03-11 03:42:00,50.9,49.2,29.67,South,187,0.0,6.0,94,0.00,,,0.00,VWS V14.01,2013-03-11 07:42:00,
2013-03-11 03:47:00,50.9,49.2,29.66,South,180,2.0,2.0,94,0.00,,,0.00,VWS V14.01,2013-03-11 07:47:00,
2013-03-11 03:52:00,50.9,49.2,29.67,South,172,2.0,5.0,94,0.00,,,0.00,VWS V14.01,2013-03-11 07:52:00,
2013-03-11 03:57:00,50.9,49.5,29.67,SW,218,1.0,3.0,95,0.00,,,0.00,VWS V14.01,2013-03-11 07:57:00,
2013-03-11 04:00:00,50.9,49.5,29.67,SSW,212,3.0,5.0,95,0.00,,,0.00,VWS V14.01,2013-03-11 08:00:00,
2013-03-11 04:02:00,50.9,49.5,29.67,South,187,1.0,5.0,95,0.00,,,0.00,VWS V14.01,2013-03-11 08:02:00,
2013-03-11 04:07:00,50.9,49.5,29.66,South,173,3.0,5.0,95,0.00,,,0.00,VWS V14.01,2013-03-11 08:07:00,
2013-03-11 04:12:00,50.9,49.5,29.66,SSE,153,2.0,5.0,95,0.00,,,0.00,VWS V14.01,2013-03-11 08:12:00,
2013-03-11 04:17:00,50.8,49.4,29.65,SE,139,1.0,3.0,95,0.01,,,0.01,VWS V14.01,2013-03-11 08:17:00,
2013-03-11 04:22:00,50.7,49.3,29.65,SW,231,2.0,3.0,95,0.01,,,0.01,VWS V14.01,2013-03-11 08:22:00,
2013-03-11 04:27:00,50.7,49.3,29.65,SE,142,2.0,3.0,95,0.01,,,0.01,VWS V14.01,2013-03-11 08:27:00,
2013-03-11 04:30:00,50.7,49.3,29.65,SSW,205,3.0,8.0,95,0.01,,,0.01,VWS V14.01,2013-03-11 08:30:00,
2013-03-11 04:32:00,50.8,49.4,29.65,South,187,2.0,4.0,95,0.01,,,0.01,VWS V14.01,2013-03-11 08:32:00,
2013-03-11 04:37:00,50.8,49.4,29.64,SSE,152,3.0,7.0,95,0.01,,,0.01,VWS V14.01,2013-03-11 08:37:00,
2013-03-11 04:42:00,50.9,49.2,29.64,SE,145,1.0,8.0,94,0.01,,,0.01,VWS V14.01,2013-03-11 08:42:00,
2013-03-11 04:47:00,50.9,49.2,29.64,SSW,204,3.0,8.0,94,0.01,,,0.01,VWS V14.01,2013-03-11 08:47:00,
2013-03-11 04:52:00,50.9,49.2,29.64,SSW,192,2.0,9.0,94,0.01,,,0.01,VWS V14.01,2013-03-11 08:52:00,
2013-03-11 04:57:00,50.9,49.2,29.64,SW,229,0.0,2.0,94,0.01,,,0.01,VWS V14.01,2013-03-11 08:57:00,
2013-03-11 05:00:00,50.9,49.2,29.64,SW,217,2.0,2.0,94,0.01,,,0.01,VWS V14.01,2013-03-11 09:00:00,
2013-03-11 05:02:00,50.8,49.1,29.64,SW,226,2.0,4.0,94,0.01,,,0.01,VWS V14.01,2013-03-11 09:02:00,
2013-03-11 05:07:00,50.8,49.1,29.64,SW,225,2.0,5.0,94,0.01,,,0.01,VWS V14.01,2013-03-11 09:07:00,
2013-03-11 05:12:00,50.6,48.9,29.63,SSE,154,4.0,4.0,94,0.01,,,0.01,VWS V14.01,2013-03-11 09:12:00,
2013-03-11 05:18:00,50.6,49.2,29.63,SSE,153,3.0,3.0,95,0.00,,,0.01,VWS V14.01,2013-03-11 09:18:00,
2013-03-11 05:23:00,50.5,49.1,29.63,SE,145,1.0,3.0,95,0.01,,,0.01,VWS V14.01,2013-03-11 09:23:00,
2013-03-11 05:28:00,50.4,49.0,29.63,SSE,150,1.0,4.0,95,0.01,,,0.02,VWS V14.01,2013-03-11 09:28:00,
2013-03-11 05:30:00,50.4,49.0,29.63,SE,126,1.0,4.0,95,0.02,,,0.02,VWS V14.01,2013-03-11 09:30:00,
2013-03-11 05:33:00,50.3,48.9,29.63,SSE,167,3.0,3.0,95,0.01,,,0.02,VWS V14.01,2013-03-11 09:33:00,
2013-03-11 05:38:00,50.1,48.7,29.62,SE,145,1.0,6.0,95,0.01,,,0.02,VWS V14.01,2013-03-11 09:38:00,
2013-03-11 05:43:00,50.0,48.6,29.62,South,183,2.0,6.0,95,0.01,,,0.02,VWS V14.01,2013-03-11 09:43:00,
2013-03-11 05:48:00,49.9,48.5,29.63,South,188,2.0,5.0,95,0.01,,,0.02,VWS V14.01,2013-03-11 09:48:00,
2013-03-11 05:53:00,49.8,48.4,29.64,SSE,153,4.0,5.0,95,0.02,,,0.03,VWS V14.01,2013-03-11 09:53:00,
2013-03-11 05:58:00,49.9,48.8,29.64,SSE,153,2.0,5.0,96,0.02,,,0.03,VWS V14.01,2013-03-11 09:58:00,
2013-03-11 06:00:00,49.8,48.7,29.64,SSE,156,3.0,7.0,96,0.02,,,0.03,VWS V14.01,2013-03-11 10:00:00,
2013-03-11 06:03:00,49.9,48.8,29.64,West,266,1.0,5.0,96,0.03,,,0.04,VWS V14.01,2013-03-11 10:03:00,
2013-03-11 06:08:00,49.8,48.7,29.63,West,278,1.0,2.0,96,0.04,,,0.05,VWS V14.01,2013-03-11 10:08:00,
2013-03-11 06:13:00,49.8,48.7,29.62,SW,217,0.0,1.0,96,0.05,,,0.06,VWS V14.01,2013-03-11 10:13:00,
2013-03-11 06:18:00,49.9,48.8,29.63,South,186,1.0,4.0,96,0.06,,,0.07,VWS V14.01,2013-03-11 10:18:00,
2013-03-11 06:23:00,49.9,48.8,29.63,SSE,162,1.0,4.0,96,0.06,,,0.07,VWS V14.01,2013-03-11 10:23:00,
2013-03-11 06:28:00,49.9,48.8,29.62,SW,222,1.0,2.0,96,0.05,,,0.07,VWS V14.01,2013-03-11 10:28:00,
2013-03-11 06:30:00,49.9,48.8,29.62,SE,133,1.0,1.0,96,0.06,,,0.07,VWS V14.01,2013-03-11 10:30:00,
2013-03-11 06:33:00,49.9,48.8,29.63,SE,136,1.0,2.0,96,0.05,,,0.07,VWS V14.01,2013-03-11 10:33:00,
2013-03-11 06:38:00,49.9,48.8,29.63,SE,132,1.0,3.0,96,0.05,,,0.07,VWS V14.01,2013-03-11 10:38:00,
2013-03-11 06:43:00,49.9,48.8,29.62,ESE,121,1.0,3.0,96,0.05,,,0.07,VWS V14.01,2013-03-11 10:43:00,
2013-03-11 06:48:00,49.8,48.7,29.63,SE,136,0.0,3.0,96,0.05,,,0.07,VWS V14.01,2013-03-11 10:48:00,
2013-03-11 06:53:00,49.9,48.8,29.64,SSE,149,1.0,3.0,96,0.05,,,0.07,VWS V14.01,2013-03-11 10:53:00,
2013-03-11 06:58:00,49.9,48.8,29.66,SSE,159,2.0,2.0,96,0.04,,,0.07,VWS V14.01,2013-03-11 10:58:00,
2013-03-11 07:00:00,49.9,48.8,29.65,SSW,203,1.0,3.0,96,0.05,,,0.07,VWS V14.01,2013-03-11 11:00:00,
2013-03-11 07:03:00,49.9,48.8,29.66,SSW,193,1.0,3.0,96,0.04,,,0.07,VWS V14.01,2013-03-11 11:03:00,
2013-03-11 07:08:00,49.9,48.8,29.66,SW,226,2.0,6.0,96,0.04,,,0.07,VWS V14.01,2013-03-11 11:08:00,
2013-03-11 07:13:00,49.9,48.8,29.65,SW,226,2.0,6.0,96,0.04,,,0.07,VWS V14.01,2013-03-11 11:13:00,
2013-03-11 07:18:00,49.9,48.8,29.65,SSW,192,0.0,0.0,96,0.04,,,0.07,VWS V14.01,2013-03-11 11:18:00,
2013-03-11 07:23:00,49.9,48.8,29.65,SSW,198,2.0,4.0,96,0.04,,,0.07,VWS V14.01,2013-03-11 11:23:00,
2013-03-11 07:28:00,49.9,48.8,29.65,South,173,0.0,1.0,96,0.00,,,0.07,VWS V14.01,2013-03-11 11:28:00,
2013-03-11 07:30:00,49.9,48.8,29.64,South,183,1.0,4.0,96,0.04,,,0.07,VWS V14.01,2013-03-11 11:30:00,
2013-03-11 07:33:00,49.9,48.8,29.64,South,176,1.0,3.0,96,0.00,,,0.07,VWS V14.01,2013-03-11 11:33:00,
2013-03-11 07:38:00,49.9,48.8,29.64,South,190,2.0,4.0,96,0.00,,,0.07,VWS V14.01,2013-03-11 11:38:00,
2013-03-11 07:43:00,49.9,48.8,29.63,South,187,0.0,0.0,96,0.00,,,0.07,VWS V14.01,2013-03-11 11:43:00,
2013-03-11 07:48:00,49.8,48.7,29.63,SSE,152,0.0,3.0,96,0.00,,,0.07,VWS V14.01,2013-03-11 11:48:00,
2013-03-11 07:53:00,49.8,48.7,29.63,SE,142,1.0,3.0,96,0.00,,,0.07,VWS V14.01,2013-03-11 11:53:00,
2013-03-11 07:58:00,49.8,48.7,29.63,South,180,3.0,3.0,96,0.00,,,0.07,VWS V14.01,2013-03-11 11:58:00,
2013-03-11 08:00:00,49.8,48.7,29.63,SSW,203,0.0,3.0,96,0.00,,,0.07,VWS V14.01,2013-03-11 12:00:00,
2013-03-11 08:04:00,49.8,48.7,29.63,SSE,152,0.0,0.0,96,0.00,,,0.07,VWS V14.01,2013-03-11 12:04:00,
2013-03-11 08:09:00,49.8,48.7,29.62,SSE,148,1.0,1.0,96,0.00,,,0.07,VWS V14.01,2013-03-11 12:09:00,
2013-03-11 08:14:00,49.8,48.7,29.62,South,176,1.0,1.0,96,0.00,,,0.07,VWS V14.01,2013-03-11 12:14:00,
2013-03-11 08:19:00,49.8,48.7,29.63,SE,146,1.0,3.0,96,0.00,,,0.07,VWS V14.01,2013-03-11 12:19:00,
2013-03-11 08:24:00,49.8,48.7,29.63,ESE,123,1.0,2.0,96,0.00,,,0.07,VWS V14.01,2013-03-11 12:24:00,
2013-03-11 08:30:00,49.8,48.7,29.64,SSE,152,2.0,2.0,96,0.00,,,0.07,VWS V14.01,2013-03-11 12:30:00,
2013-03-11 08:35:00,49.7,48.6,29.63,South,191,2.0,3.0,96,0.00,,,0.07,VWS V14.01,2013-03-11 12:35:00,
2013-03-11 08:40:00,49.7,48.6,29.62,SSE,156,3.0,4.0,96,0.00,,,0.07,VWS V14.01,2013-03-11 12:40:00,
2013-03-11 08:45:00,49.7,48.6,29.62,SE,131,3.0,3.0,96,0.00,,,0.07,VWS V14.01,2013-03-11 12:45:00,
2013-03-11 08:50:00,49.7,48.6,29.62,WSW,252,1.0,5.0,96,0.00,,,0.07,VWS V14.01,2013-03-11 12:50:00,
2013-03-11 08:55:00,49.7,48.6,29.62,SSW,199,0.0,5.0,96,0.00,,,0.07,VWS V14.01,2013-03-11 12:55:00,
2013-03-11 09:00:00,49.7,48.6,29.63,SSW,193,1.0,5.0,96,0.00,,,0.07,VWS V14.01,2013-03-11 13:00:00,
2013-03-11 09:05:00,49.7,48.6,29.63,South,191,1.0,5.0,96,0.00,,,0.07,VWS V14.01,2013-03-11 13:05:00,
2013-03-11 09:10:00,49.7,48.6,29.63,SSW,211,6.0,6.0,96,0.00,,,0.07,VWS V14.01,2013-03-11 13:10:00,
2013-03-11 09:15:00,49.7,48.3,29.63,SW,217,5.0,5.0,95,0.00,,,0.07,VWS V14.01,2013-03-11 13:15:00,
2013-03-11 09:20:00,49.7,48.3,29.62,South,174,1.0,7.0,95,0.00,,,0.07,VWS V14.01,2013-03-11 13:20:00,
2013-03-11 09:25:00,49.7,48.3,29.63,SW,215,1.0,2.0,95,0.00,,,0.07,VWS V14.01,2013-03-11 13:25:00,
2013-03-11 09:30:00,49.7,48.3,29.63,SE,146,2.0,5.0,95,0.00,,,0.07,VWS V14.01,2013-03-11 13:30:00,
2013-03-11 09:35:00,49.7,48.3,29.63,SE,145,3.0,6.0,95,0.00,,,0.07,VWS V14.01,2013-03-11 13:35:00,
2013-03-11 09:40:00,49.8,48.4,29.63,SSE,152,1.0,5.0,95,0.00,,,0.07,VWS V14.01,2013-03-11 13:40:00,
2013-03-11 09:45:00,49.8,48.4,29.62,SSE,162,2.0,2.0,95,0.00,,,0.07,VWS V14.01,2013-03-11 13:45:00,
2013-03-11 09:50:00,49.9,48.5,29.61,SE,138,0.0,3.0,95,0.00,,,0.07,VWS V14.01,2013-03-11 13:50:00,
2013-03-11 09:55:00,49.9,48.5,29.61,SE,125,2.0,2.0,95,0.00,,,0.07,VWS V14.01,2013-03-11 13:55:00,
2013-03-11 10:00:00,50.0,48.6,29.61,SE,134,1.0,4.0,95,0.00,,,0.07,VWS V14.01,2013-03-11 14:00:00,
2013-03-11 10:06:00,50.0,48.6,29.61,SSW,194,5.0,5.0,95,0.00,,,0.07,VWS V14.01,2013-03-11 14:06:00,
2013-03-11 10:11:00,50.1,48.7,29.61,SE,138,2.0,5.0,95,0.00,,,0.07,VWS V14.01,2013-03-11 14:11:00,
2013-03-11 10:16:00,50.2,48.8,29.60,SSE,159,1.0,6.0,95,0.00,,,0.07,VWS V14.01,2013-03-11 14:16:00,
2013-03-11 10:21:00,50.2,48.5,29.60,SW,221,2.0,8.0,94,0.00,,,0.07,VWS V14.01,2013-03-11 14:21:00,
2013-03-11 10:26:00,50.3,48.6,29.59,SSE,168,5.0,5.0,94,0.00,,,0.07,VWS V14.01,2013-03-11 14:26:00,
2013-03-11 10:30:00,50.3,48.6,29.59,SSW,204,2.0,5.0,94,0.00,,,0.07,VWS V14.01,2013-03-11 14:30:00,
2013-03-11 10:31:00,50.3,48.6,29.60,South,177,6.0,6.0,94,0.00,,,0.07,VWS V14.01,2013-03-11 14:31:00,
2013-03-11 10:36:00,50.4,48.5,29.59,South,184,3.0,6.0,93,0.00,,,0.07,VWS V14.01,2013-03-11 14:36:00,
2013-03-11 10:41:00,50.4,48.5,29.60,SW,235,4.0,6.0,93,0.00,,,0.07,VWS V14.01,2013-03-11 14:41:00,
2013-03-11 10:47:00,50.4,48.5,29.59,South,191,2.0,6.0,93,0.00,,,0.07,VWS V14.01,2013-03-11 14:47:00,
2013-03-11 10:52:00,50.4,48.2,29.59,SSW,208,2.0,2.0,92,0.00,,,0.07,VWS V14.01,2013-03-11 14:52:00,
2013-03-11 10:57:00,50.4,48.2,29.58,SSW,199,4.0,7.0,92,0.00,,,0.07,VWS V14.01,2013-03-11 14:57:00,
2013-03-11 11:00:00,50.4,48.2,29.58,SW,224,5.0,7.0,92,0.00,,,0.07,VWS V14.01,2013-03-11 15:00:00,
2013-03-11 11:02:00,50.4,48.2,29.58,SW,229,1.0,5.0,92,0.00,,,0.07,VWS V14.01,2013-03-11 15:02:00,
2013-03-11 11:07:00,50.4,48.2,29.58,South,179,6.0,6.0,92,0.00,,,0.07,VWS V14.01,2013-03-11 15:07:00,
2013-03-11 11:12:00,50.3,48.1,29.58,SW,221,2.0,2.0,92,0.00,,,0.07,VWS V14.01,2013-03-11 15:12:00,
2013-03-11 11:18:00,50.1,47.9,29.58,WSW,244,2.0,5.0,92,0.01,,,0.08,VWS V14.01,2013-03-11 15:18:00,
2013-03-11 11:23:00,49.7,47.5,29.58,West,276,1.0,1.0,92,0.00,,,0.08,VWS V14.01,2013-03-11 15:23:00,
2013-03-11 11:28:00,49.0,47.1,29.58,WNW,291,1.0,1.0,93,0.01,,,0.08,VWS V14.01,2013-03-11 15:28:00,
2013-03-11 11:30:00,49.1,46.9,29.58,West,269,1.0,1.0,92,0.01,,,0.08,VWS V14.01,2013-03-11 15:30:00,
2013-03-11 11:33:00,48.7,46.8,29.58,SW,228,3.0,4.0,93,0.01,,,0.08,VWS V14.01,2013-03-11 15:33:00,
2013-03-11 11:38:00,48.3,46.4,29.58,West,276,1.0,5.0,93,0.01,,,0.08,VWS V14.01,2013-03-11 15:38:00,
2013-03-11 11:43:00,47.9,46.3,29.59,West,281,2.0,2.0,94,0.00,,,0.08,VWS V14.01,2013-03-11 15:43:00,
2013-03-11 11:48:00,47.7,46.1,29.59,WNW,288,1.0,2.0,94,0.01,,,0.08,VWS V14.01,2013-03-11 15:48:00,
2013-03-11 11:53:00,47.3,45.7,29.59,SSW,197,0.0,1.0,94,0.01,,,0.08,VWS V14.01,2013-03-11 15:53:00,
2013-03-11 11:58:00,47.0,45.7,29.59,NW,310,3.0,4.0,95,0.01,,,0.08,VWS V14.01,2013-03-11 15:58:00,
2013-03-11 12:00:00,47.1,45.7,29.59,WNW,299,2.0,3.0,95,0.01,,,0.08,VWS V14.01,2013-03-11 16:00:00,
2013-03-11 12:03:00,46.7,45.3,29.58,WNW,297,2.0,5.0,95,0.01,,,0.08,VWS V14.01,2013-03-11 16:03:00,
2013-03-11 12:08:00,46.4,45.0,29.59,West,260,1.0,6.0,95,0.01,,,0.08,VWS V14.01,2013-03-11 16:08:00,
2013-03-11 12:13:00,46.1,44.8,29.59,WSW,255,2.0,6.0,95,0.01,,,0.08,VWS V14.01,2013-03-11 16:13:00,
2013-03-11 12:18:00,45.7,44.3,29.59,WNW,300,2.0,2.0,95,0.00,,,0.09,VWS V14.01,2013-03-11 16:18:00,
2013-03-11 12:23:00,45.4,44.0,29.58,NW,316,2.0,5.0,95,0.02,,,0.09,VWS V14.01,2013-03-11 16:23:00,
2013-03-11 12:28:00,45.3,44.0,29.58,WNW,285,2.0,5.0,95,0.01,,,0.09,VWS V14.01,2013-03-11 16:28:00,
2013-03-11 12:30:00,45.3,44.0,29.58,NW,307,1.0,5.0,95,0.02,,,0.09,VWS V14.01,2013-03-11 16:30:00,
2013-03-11 12:33:00,45.1,43.8,29.58,WSW,254,3.0,4.0,95,0.01,,,0.09,VWS V14.01,2013-03-11 16:33:00,
2013-03-11 12:38:00,44.9,43.6,29.58,West,271,3.0,7.0,95,0.01,,,0.09,VWS V14.01,2013-03-11 16:38:00,
2013-03-11 12:43:00,44.5,43.2,29.58,WNW,297,3.0,10.0,95,0.01,,,0.09,VWS V14.01,2013-03-11 16:43:00,
2013-03-11 12:48:00,44.2,42.9,29.58,West,266,4.0,5.0,95,0.01,,,0.09,VWS V14.01,2013-03-11 16:48:00,
2013-03-11 12:53:00,44.2,43.1,29.59,South,191,2.0,2.0,96,0.01,,,0.09,VWS V14.01,2013-03-11 16:53:00,
2013-03-11 12:58:00,44.1,43.0,29.59,NW,312,4.0,4.0,96,0.01,,,0.09,VWS V14.01,2013-03-11 16:58:00,
2013-03-11 13:00:00,44.1,43.0,29.59,WNW,287,4.0,4.0,96,0.01,,,0.09,VWS V14.01,2013-03-11 17:00:00,
2013-03-11 13:03:00,44.3,43.2,29.58,WSW,244,4.0,8.0,96,0.01,,,0.09,VWS V14.01,2013-03-11 17:03:00,
2013-03-11 13:08:00,44.4,43.3,29.59,SW,236,0.0,2.0,96,0.01,,,0.09,VWS V14.01,2013-03-11 17:08:00,
2013-03-11 13:13:00,44.3,43.2,29.60,WNW,294,2.0,2.0,96,0.00,,,0.10,VWS V14.01,2013-03-11 17:13:00,
2013-03-11 13:18:00,44.3,43.2,29.60,WNW,288,3.0,6.0,96,0.04,,,0.12,VWS V14.01,2013-03-11 17:18:00,
2013-03-11 13:23:00,44.1,43.0,29.60,WSW,238,5.0,5.0,96,0.05,,,0.13,VWS V14.01,2013-03-11 17:23:00,
2013-03-11 13:28:00,43.5,42.2,29.60,WNW,284,2.0,11.0,95,0.04,,,0.13,VWS V14.01,2013-03-11 17:28:00,
2013-03-11 13:30:00,43.7,42.4,29.59,WSW,245,3.0,10.0,95,0.05,,,0.13,VWS V14.01,2013-03-11 17:30:00,
2013-03-11 13:33:00,43.0,41.7,29.59,NW,311,3.0,6.0,95,0.04,,,0.13,VWS V14.01,2013-03-11 17:33:00,
2013-03-11 13:38:00,42.8,41.5,29.60,WNW,297,3.0,6.0,95,0.04,,,0.13,VWS V14.01,2013-03-11 17:38:00,
2013-03-11 13:43:00,42.4,40.8,29.60,WSW,246,4.0,8.0,94,0.04,,,0.13,VWS V14.01,2013-03-11 17:43:00,
2013-03-11 13:48:00,42.3,40.7,29.60,West,260,5.0,7.0,94,0.04,,,0.13,VWS V14.01,2013-03-11 17:48:00,
2013-03-11 13:54:00,42.2,40.6,29.60,WSW,244,6.0,6.0,94,0.00,,,0.13,VWS V14.01,2013-03-11 17:54:00,
2013-03-11 13:59:00,42.0,40.4,29.60,SW,235,1.0,5.0,94,0.04,,,0.13,VWS V14.01,2013-03-11 17:59:00,
2013-03-11 14:00:00,42.1,40.5,29.60,West,262,3.0,8.0,94,0.04,,,0.13,VWS V14.01,2013-03-11 18:00:00,
2013-03-11 14:04:00,42.0,40.4,29.60,WSW,245,2.0,8.0,94,0.04,,,0.13,VWS V14.01,2013-03-11 18:04:00,
2013-03-11 14:09:00,41.9,40.3,29.60,West,259,3.0,11.0,94,0.04,,,0.13,VWS V14.01,2013-03-11 18:09:00,
2013-03-11 14:14:00,42.0,40.4,29.60,WSW,242,4.0,13.0,94,0.04,,,0.13,VWS V14.01,2013-03-11 18:14:00,
2013-03-11 14:19:00,42.2,40.3,29.60,SSW,193,3.0,3.0,93,0.00,,,0.13,VWS V14.01,2013-03-11 18:19:00,
2013-03-11 14:24:00,42.2,40.0,29.60,SSE,150,6.0,13.0,92,0.04,,,0.13,VWS V14.01,2013-03-11 18:24:00,
2013-03-11 14:29:00,42.0,39.6,29.60,South,174,8.0,8.0,91,0.00,,,0.13,VWS V14.01,2013-03-11 18:29:00,
2013-03-11 14:30:00,42.1,39.4,29.60,WNW,302,4.0,14.0,90,0.04,,,0.13,VWS V14.01,2013-03-11 18:30:00,
2013-03-11 14:34:00,41.8,39.1,29.60,SW,219,3.0,12.0,90,0.00,,,0.13,VWS V14.01,2013-03-11 18:34:00,
2013-03-11 14:39:00,42.0,39.3,29.59,SW,226,6.0,9.0,90,0.00,,,0.13,VWS V14.01,2013-03-11 18:39:00,
2013-03-11 14:44:00,42.3,39.6,29.59,WSW,245,9.0,9.0,90,0.00,,,0.13,VWS V14.01,2013-03-11 18:44:00,
2013-03-11 14:49:00,42.0,38.7,29.59,WSW,249,9.0,12.0,88,0.00,,,0.13,VWS V14.01,2013-03-11 18:49:00,
2013-03-11 14:54:00,42.1,39.1,29.59,West,262,5.0,12.0,89,0.00,,,0.13,VWS V14.01,2013-03-11 18:54:00,
2013-03-11 14:59:00,42.0,38.7,29.60,West,271,6.0,13.0,88,0.00,,,0.13,VWS V14.01,2013-03-11 18:59:00,
2013-03-11 15:00:00,42.0,39.0,29.59,SSW,204,7.0,12.0,89,0.00,,,0.13,VWS V14.01,2013-03-11 19:00:00,
2013-03-11 15:04:00,42.0,38.7,29.60,WSW,252,10.0,13.0,88,0.00,,,0.13,VWS V14.01,2013-03-11 19:04:00,
2013-03-11 15:09:00,42.1,38.5,29.60,WSW,255,7.0,16.0,87,0.00,,,0.13,VWS V14.01,2013-03-11 19:09:00,
2013-03-11 15:14:00,42.1,38.2,29.60,WSW,248,2.0,8.0,86,0.00,,,0.13,VWS V14.01,2013-03-11 19:14:00,
2013-03-11 15:19:00,42.1,38.5,29.60,SW,218,6.0,6.0,87,0.00,,,0.13,VWS V14.01,2013-03-11 19:19:00,
2013-03-11 15:24:00,42.1,38.2,29.60,ENE,59,6.0,6.0,86,0.00,,,0.13,VWS V14.01,2013-03-11 19:24:00,
2013-03-11 15:30:00,42.1,37.9,29.60,SSW,212,6.0,6.0,85,0.00,,,0.13,VWS V14.01,2013-03-11 19:30:00,
2013-03-11 15:35:00,42.2,38.0,29.60,West,271,3.0,10.0,85,0.00,,,0.13,VWS V14.01,2013-03-11 19:35:00,
2013-03-11 15:40:00,42.1,37.3,29.60,West,262,12.0,17.0,83,0.00,,,0.13,VWS V14.01,2013-03-11 19:40:00,
2013-03-11 15:45:00,42.2,37.4,29.60,West,266,7.0,17.0,83,0.00,,,0.13,VWS V14.01,2013-03-11 19:45:00,
2013-03-11 15:50:00,42.2,36.8,29.60,WSW,252,7.0,17.0,81,0.00,,,0.13,VWS V14.01,2013-03-11 19:50:00,
2013-03-11 15:55:00,42.3,37.2,29.60,South,186,6.0,17.0,82,0.00,,,0.13,VWS V14.01,2013-03-11 19:55:00,
2013-03-11 16:00:00,41.9,36.8,29.60,WSW,248,14.0,14.0,82,0.00,,,0.13,VWS V14.01,2013-03-11 20:00:00,
2013-03-11 16:05:00,41.6,36.2,29.61,WSW,253,12.0,19.0,81,0.00,,,0.13,VWS V14.01,2013-03-11 20:05:00,
2013-03-11 16:10:00,41.0,35.9,29.62,West,260,3.0,19.0,82,0.00,,,0.13,VWS V14.01,2013-03-11 20:10:00,
2013-03-11 16:15:00,40.6,35.8,29.62,WNW,283,8.0,11.0,83,0.00,,,0.13,VWS V14.01,2013-03-11 20:15:00,
2013-03-11 16:20:00,40.3,35.9,29.63,West,281,10.0,15.0,84,0.00,,,0.13,VWS V14.01,2013-03-11 20:20:00,
2013-03-11 16:25:00,39.7,35.6,29.63,SW,219,8.0,8.0,85,0.00,,,0.13,VWS V14.01,2013-03-11 20:25:00,
2013-03-11 16:30:00,39.4,35.3,29.63,West,264,2.0,14.0,85,0.00,,,0.13,VWS V14.01,2013-03-11 20:30:00,
2013-03-11 16:35:00,39.1,35.0,29.64,SW,228,2.0,14.0,85,0.00,,,0.13,VWS V14.01,2013-03-11 20:35:00,
2013-03-11 16:40:00,38.6,34.8,29.64,West,271,4.0,16.0,86,0.00,,,0.13,VWS V14.01,2013-03-11 20:40:00,
2013-03-11 16:45:00,38.2,34.7,29.64,West,260,3.0,3.0,87,0.00,,,0.13,VWS V14.01,2013-03-11 20:45:00,
2013-03-11 16:50:00,37.9,34.7,29.64,WSW,248,4.0,6.0,88,0.00,,,0.13,VWS V14.01,2013-03-11 20:50:00,
2013-03-11 16:55:00,37.6,34.4,29.65,West,274,6.0,12.0,88,0.00,,,0.13,VWS V14.01,2013-03-11 20:55:00,
2013-03-11 17:00:00,37.5,34.6,29.65,WSW,255,4.0,6.0,89,0.00,,,0.13,VWS V14.01,2013-03-11 21:00:00,
2013-03-11 17:08:00,37.1,34.0,29.65,West,276,3.0,16.0,88,0.00,,,0.13,weatherlink.com 1.10,2013-03-11 21:08:00,
2013-03-11 17:30:00,37.3,34.1,29.66,WSW,248,5.0,16.0,88,0.00,,,0.00,VWS V14.01,2013-03-11 21:30:00,
2013-03-11 18:00:00,36.7,33.2,29.68,West,270,5.0,18.0,87,0.00,,,0.00,VWS V14.01,2013-03-11 22:00:00,
2013-03-11 18:30:00,36.2,32.4,29.69,West,270,5.0,15.0,86,0.00,,,0.00,VWS V14.01,2013-03-11 22:30:00,
2013-03-11 19:00:00,36.1,32.3,29.71,WSW,248,5.0,16.0,86,0.00,,,0.00,VWS V14.01,2013-03-11 23:00:00,
2013-03-11 19:30:00,35.6,31.8,29.71,WSW,248,6.0,17.0,86,0.00,,,0.00,VWS V14.01,2013-03-11 23:30:00,
2013-03-11 20:00:00,35.4,31.9,29.73,WSW,248,4.0,13.0,87,0.00,,,0.00,VWS V14.01,2013-03-12 00:00:00,
2013-03-11 20:30:00,35.2,32.0,29.75,WSW,248,4.0,14.0,88,0.00,,,0.00,VWS V14.01,2013-03-12 00:30:00,
2013-03-11 21:00:00,34.8,31.9,29.76,WSW,248,4.0,15.0,89,0.00,,,0.00,VWS V14.01,2013-03-12 01:00:00,
2013-03-11 21:30:00,34.6,31.7,29.77,WSW,248,4.0,12.0,89,0.00,,,0.00,VWS V14.01,2013-03-12 01:30:00,
2013-03-11 22:00:00,34.6,31.7,29.79,WSW,248,4.0,15.0,89,0.00,,,0.00,VWS V14.01,2013-03-12 02:00:00,
2013-03-11 22:30:00,34.0,31.9,29.80,WSW,248,4.0,12.0,92,0.00,,,0.00,VWS V14.01,2013-03-12 02:30:00,
2013-03-11 23:00:00,33.6,31.5,29.81,WSW,248,4.0,14.0,92,0.00,,,0.00,VWS V14.01,2013-03-12 03:00:00,
2013-03-11 23:30:00,33.3,31.5,29.82,West,270,4.0,11.0,93,0.00,,,0.00,VWS V14.01,2013-03-12 03:30:00,